Date String (YYYY-MM-DD hh:mm:ss) UTC,Instrument flags,Ambient pressure (hPa),Sample flow (lpm),Bypass flow (lpm),Sample temperature (°C),Ambient temperature (°C),ASC tube jacket temperature (°C),LED temperature (°C),Box temperature (°C),Sample RH (%),Span deviation,Mass concentration (μg/m³),Mass concentration (μg/m³),Mass concentration (μg/m³)
DateTimeUTC,F1_M11,P_M11,Q1_M11,Q2_M11,T1_M11,T2_M11,T3_M11,T4_M11,T5_M11,U1_M11,ZSPAN_M11,X0_M11,X2_M11,X1_M11
2022-12-28 09:00:00,,0806.1,4.99,0.00,23.4,21.8,00.0,32.3,25.1,14.7,0000.0,0000.49,0000.13,0000.04
2022-12-28 09:01:00,,0806.2,5.00,0.00,23.4,21.8,00.0,32.3,25.1,14.7,0000.0,0000.53,0000.15,0000.04
2022-12-28 09:02:00,,0806.3,5.00,0.00,23.4,21.8,00.0,32.3,25.0,14.9,0000.0,0000.56,0000.16,0000.04
2022-12-28 09:03:00,,0806.4,5.01,0.00,23.4,21.8,00.0,32.3,25.0,15.1,0000.0,0000.54,0000.15,0000.04
2022-12-28 09:04:00,,0806.4,5.00,0.00,23.4,21.8,00.0,32.3,25.0,14.9,0000.0,0000.51,0000.14,0000.04
2022-12-28 09:05:00,,0806.4,5.00,0.00,23.3,21.8,00.0,32.3,25.0,14.7,0000.0,0000.43,0000.13,0000.04
2022-12-28 09:06:00,,0806.3,5.00,0.00,23.4,21.8,00.0,32.3,25.1,14.6,0000.0,0000.45,0000.15,0000.04
2022-12-28 09:07:00,,0806.3,4.99,0.00,23.4,21.8,00.0,32.3,25.1,14.5,0000.0,0000.40,0000.14,0000.03
2022-12-28 09:08:00,,0806.1,5.00,0.00,23.3,21.7,00.0,32.3,25.0,14.5,0000.0,0000.46,0000.14,0000.04
2022-12-28 09:09:00,,0806.1,5.00,0.00,23.3,21.7,00.0,32.2,25.0,14.7,0000.0,0000.46,0000.14,0000.04
2022-12-28 09:10:00,,0806.0,5.00,0.00,23.3,21.7,00.0,32.2,25.0,14.6,0000.0,0000.43,0000.13,0000.04
2022-12-28 09:11:00,,0806.2,5.00,0.00,23.3,21.7,00.0,32.2,25.0,14.5,0000.0,0000.42,0000.12,0000.04
2022-12-28 09:12:00,,0806.4,5.00,0.00,23.3,21.7,00.0,32.2,25.0,14.4,0000.0,0000.47,0000.13,0000.04
2022-12-28 09:13:00,,0806.3,5.01,0.00,23.3,21.7,00.0,32.2,24.9,14.7,0000.0,0000.52,0000.15,0000.04
2022-12-28 09:14:00,,0806.3,5.00,0.00,23.3,21.7,00.0,32.2,25.0,14.7,0000.0,0000.53,0000.15,0000.04
2022-12-28 09:15:00,,0806.2,4.99,0.00,23.3,21.7,00.0,32.2,25.0,14.7,0000.0,0000.64,0000.16,0000.04
2022-12-28 09:16:00,,0806.4,5.00,0.00,23.2,21.7,00.0,32.2,25.0,14.7,0000.0,0000.72,0000.20,0000.04
2022-12-28 09:17:00,,0806.6,5.01,0.00,23.2,21.7,00.0,32.2,24.9,14.4,0000.0,0000.64,0000.18,0000.04
2022-12-28 09:18:00,,0806.5,5.01,0.00,23.2,21.7,00.0,32.2,24.9,14.5,0000.0,0000.56,0000.16,0000.04
2022-12-28 09:19:00,,0806.3,5.00,0.00,23.2,21.7,00.0,32.2,24.9,14.5,0000.0,0000.46,0000.15,0000.04
2022-12-28 09:20:00,,0806.2,4.99,0.00,23.2,21.7,00.0,32.2,25.0,14.5,0000.0,0000.45,0000.15,0000.04
2022-12-28 09:21:00,,0806.3,5.01,0.00,23.2,21.6,00.0,32.1,24.9,14.5,0000.0,0000.50,0000.17,0000.04
2022-12-28 09:22:00,,0806.4,5.01,0.00,23.2,21.6,00.0,32.1,24.9,14.5,0000.0,0000.56,0000.19,0000.04
2022-12-28 09:23:00,,0806.3,5.00,0.00,23.2,21.5,00.0,32.1,24.8,14.6,0000.0,0000.54,0000.19,0000.04
2022-12-28 09:24:00,,0806.4,5.00,0.00,23.1,21.5,00.0,32.1,24.8,14.6,0000.0,0000.88,0000.16,0000.04
2022-12-28 09:25:00,,0806.4,5.00,0.00,23.1,21.5,00.0,32.1,24.8,14.9,0000.0,0001.00,0000.16,0000.04
2022-12-28 09:26:00,,0806.4,5.00,0.00,23.1,21.6,00.0,32.1,24.8,14.8,0000.0,0000.92,0000.15,0000.04
2022-12-28 09:27:00,,0806.4,5.00,0.00,23.1,21.6,00.0,32.1,24.8,14.7,0000.0,0000.83,0000.12,0000.04
2022-12-28 09:28:00,,0806.4,5.00,0.00,23.1,21.6,00.0,32.1,24.8,15.0,0000.0,0000.83,0000.12,0000.04
2022-12-28 09:29:00,,0806.5,5.00,0.00,23.1,21.6,00.0,32.1,24.9,15.0,0000.0,0000.93,0000.11,0000.04
2022-12-28 09:30:00,,0806.5,5.00,0.00,23.1,21.6,00.0,32.1,24.9,15.1,0000.0,0001.14,0000.11,0000.03
2022-12-28 09:31:00,,0806.3,5.00,0.00,23.1,21.6,00.0,32.1,24.9,15.1,0000.0,0001.14,0000.11,0000.03
2022-12-28 09:32:00,,0806.4,5.00,0.00,23.1,21.6,00.0,32.1,24.9,14.8,0000.0,0001.12,0000.10,0000.03
2022-12-28 09:33:00,,0806.6,5.00,0.00,23.1,21.6,00.0,32.1,24.9,14.9,0000.0,0001.04,0000.08,0000.03
2022-12-28 09:34:00,,0806.7,5.00,0.00,23.1,21.6,00.0,32.1,24.9,14.9,0000.0,0001.02,0000.06,0000.03
2022-12-28 09:35:00,,0806.6,4.99,0.00,23.1,21.6,00.0,32.0,24.9,14.9,0000.0,0000.68,0000.08,0000.03
2022-12-28 09:36:00,,0806.6,5.00,0.00,23.1,21.6,00.0,32.0,24.9,15.0,0000.0,0000.49,0000.08,0000.03
2022-12-28 09:37:00,,0806.6,5.00,0.00,23.1,21.6,00.0,32.0,24.9,14.8,0000.0,0000.47,0000.07,0000.03
2022-12-28 09:38:00,,0806.7,4.99,0.00,23.1,21.6,00.0,32.0,24.8,14.7,0000.0,0000.46,0000.06,0000.03
2022-12-28 09:39:00,,0806.6,5.01,0.00,23.1,21.6,00.0,32.0,24.7,15.1,0000.0,0000.45,0000.06,0000.03
2022-12-28 09:40:00,,0806.8,5.00,0.00,23.1,21.5,00.0,32.0,24.7,15.1,0000.0,0000.37,0000.06,0000.03
2022-12-28 09:41:00,,0806.8,5.00,0.00,23.1,21.6,00.0,32.0,24.8,15.4,0000.0,0000.12,0000.06,0000.03
2022-12-28 09:42:00,,0806.9,5.01,0.00,23.1,21.6,00.0,32.0,24.8,15.5,0000.0,0000.13,0000.06,0000.03
2022-12-28 09:43:00,,0806.9,5.01,0.00,23.1,21.6,00.0,32.0,24.9,15.3,0000.0,0000.13,0000.06,0000.03
2022-12-28 09:44:00,,0806.8,5.00,0.00,23.1,21.7,00.0,32.0,24.8,15.2,0000.0,0000.13,0000.06,0000.03
2022-12-28 09:45:00,,0806.9,5.00,0.00,23.1,21.7,00.0,32.0,24.8,15.2,0000.0,0000.16,0000.08,0000.03
2022-12-28 09:46:00,,0806.9,5.00,0.00,23.1,21.7,00.0,32.0,24.8,15.3,0000.0,0000.16,0000.08,0000.03
2022-12-28 09:47:00,,0806.8,5.00,0.00,23.1,21.7,00.0,32.0,24.9,15.4,0000.0,0000.16,0000.08,0000.03
2022-12-28 09:48:00,,0806.9,5.00,0.00,23.2,21.8,00.0,32.0,24.9,15.4,0000.0,0000.16,0000.08,0000.03
2022-12-28 09:49:00,,0806.8,4.99,0.00,23.2,21.8,00.0,32.0,24.9,15.3,0000.0,0000.17,0000.09,0000.03
2022-12-28 09:50:00,,0806.9,5.00,0.00,23.2,21.9,00.0,32.0,25.0,15.1,0000.0,0000.19,0000.10,0000.03
2022-12-28 09:51:00,,0807.0,5.01,0.00,23.2,21.9,00.0,32.0,25.0,14.9,0000.0,0000.19,0000.09,0000.03
2022-12-28 09:52:00,,0806.8,5.00,0.00,23.2,21.9,00.0,32.0,24.9,14.8,0000.0,0000.40,0000.09,0000.03
2022-12-28 09:53:00,,0806.8,5.01,0.00,23.2,21.9,00.0,32.1,25.0,14.7,0000.0,0000.92,0000.10,0000.03
2022-12-28 09:54:00,,0806.9,5.00,0.00,23.2,21.9,00.0,32.1,25.0,14.7,0000.0,0000.94,0000.10,0000.03
2022-12-28 09:55:00,,0806.8,4.99,0.00,23.2,21.9,00.0,32.1,25.0,14.9,0000.0,0000.94,0000.10,0000.03
2022-12-28 09:56:00,,0806.5,4.99,0.00,23.2,21.9,00.0,32.1,25.0,14.7,0000.0,0000.88,0000.08,0000.03
2022-12-28 09:57:00,,0806.3,4.99,0.00,23.3,21.8,00.0,32.1,25.0,14.8,0000.0,0000.99,0000.08,0000.03
2022-12-28 09:58:00,,0806.4,5.01,0.00,23.2,21.8,00.0,32.0,25.0,14.6,0000.0,0001.31,0000.11,0000.03
2022-12-28 09:59:00,,0806.4,5.01,0.00,23.2,21.7,00.0,32.0,24.9,14.6,0000.0,0001.31,0000.11,0000.03
